Home > Weather > Rasht > Past weeks

Flag for Iran Weather for the Past 2 Weeks in Rasht, Iran

Now
68 °F

Clear.


Feels Like: 68 °F
Forecast: 44 / 51 °F
Wind: 5 mph from South

Location: Rasht Airport

Current Time: Feb 6, 2016 at 4:26:09 AM

Latest Report: Feb 6, 2016 at 3:30 AM


Visibility: 10 mi

Pressure: 29.80 "Hg

Humidity: 26%

Dew point: 32 °F

Location of RashtLocation

Historic Weather in Rasht — Graph

°F

Rasht Temperature Yesterday

Maximum temperature yesterday: 68 °F (at 1:30 PM)
Minimum temperature yesterday: 36 °F (at 7:30 AM)
Average temperature yesterday: 52 °F

High & Low Weather Summary for the Past Weeks

 TemperatureHumidityPressure
High73 °F (Feb 6, 2:30 AM)100% (Jan 22, 3:30 AM)30.51 "Hg (Jan 22, 3:30 AM)
Low23 °F (Jan 29, 2:30 AM)19% (Feb 6, 2:30 AM)29.80 "Hg (Feb 6, 1:30 AM)
Average44 °F88%30.20 "Hg
* Reported Jan 22 2:30 AM — Feb 6 2:30 AM, Rasht, Weather by CustomWeather, © 2016

Note: Actual official high and low records may vary slightly from our data, if they occured in-between our weather recording intervals... More about our weather records

Advertising

Rasht Weather History for the Previous 24 Hours

 ConditionsComfort  
Time TempWeatherWind HumidityBarometerVisibility
2:30 AM
Sat, Feb 6
73 °FClear.9 mph19%29.80 "Hg10 mi
1:30 AM55 °FPassing clouds.7 mph44%29.80 "Hg2 mi
12:30 AM45 °FFog.No wind100%29.86 "Hg2 mi
11:30 PM
Fri, Feb 5
48 °FFog.No wind94%29.86 "Hg3 mi
10:30 PM48 °FFog.No wind94%29.92 "Hg3 mi
9:30 PM48 °FClear.No wind100%29.92 "Hg4 mi
8:30 PM50 °FClear.No wind94%29.95 "Hg4 mi
7:30 PM52 °FClear.No wind88%29.95 "Hg4 mi
7:00 PM54 °FClear.No wind88%29.95 "Hg10 mi
6:30 PM54 °FClear.No wind88%29.95 "Hg10 mi
6:00 PM55 °FSunny.No wind82%29.95 "Hg10 mi
5:30 PM59 °FSunny.No wind72%29.95 "Hg10 mi
5:00 PM63 °FSunny.7 mph64%29.95 "Hg10 mi
4:30 PM63 °FSunny.7 mph64%29.95 "Hg10 mi
4:00 PM66 °FSunny.7 mph56%29.95 "Hg10 mi
3:30 PM66 °FSunny.7 mph56%29.95 "Hg10 mi
3:00 PM68 °FSunny.5 mph53%29.95 "Hg10 mi
2:30 PM68 °FSunny.5 mph53%29.95 "Hg10 mi
2:00 PM68 °FSunny.No wind53%29.95 "Hg10 mi
1:30 PM68 °FSunny.No wind53%29.98 "Hg10 mi
1:00 PM63 °FSunny.No wind56%30.01 "Hg10 mi
12:30 PM63 °FSunny.No wind56%30.01 "Hg10 mi
12:00 PM59 °FSunny.No wind63%30.04 "Hg10 mi
11:30 AM59 °FSunny.No wind63%30.04 "Hg10 mi
11:00 AM54 °FSunny.No wind82%30.07 "Hg10 mi
10:30 AM54 °FSunny.No wind82%30.09 "Hg10 mi
10:00 AM48 °FSunny.No wind87%30.09 "Hg10 mi
9:30 AM48 °FSunny.No wind87%30.09 "Hg10 mi
9:00 AM41 °FSunny.No wind100%30.09 "Hg10 mi
8:30 AM41 °FSunny.No wind100%30.09 "Hg10 mi
8:00 AM36 °FFog.5 mph100%30.09 "Hg3 mi
7:30 AM36 °FFog.5 mph100%30.09 "Hg3 mi
7:00 AM37 °FFog.No wind93%30.12 "Hg2 mi
5:30 AM37 °FFog.No wind93%30.09 "Hg2 mi
4:30 AM39 °FFog.No wind93%30.12 "Hg2 mi
Weather by CustomWeather, © 2016

See weather overviewHow to use our weather pages